Skip Page Navigation
NASA JPL Caltech
NASA Logo - Jet Propulsion Laboratory + View the NASA Portal
+ Center for Near-Earth Object Studies
JPL Home Earth Solar System Stars & Galaxies Technology
JPL Solar System Dynamics
BODIES ORBITS EPHEMERIDES TOOLS PHYSICAL DATA DISCOVERY FAQ SITE MAP
IMPORTANT: The SSD Announcement email list is now available. Major changes are coming in the near future, including possible hostname and/or URL changes. To be notified of such changes, subscribe to this email list.

Please visit this page for more details.


JPL Small-Body Database Browser
Search: [ help ]  
193047 (2000 FW11)
Classification: Main-belt Asteroid          SPK-ID: 2193047
Ephemeris | Orbit Diagram | Orbital Elements | Mission Design | Physical Parameters | Discovery Circumstances | Close-Approach Data ]

[ show orbit diagram ]
Orbital Elements at Epoch 2458600.5 (2019-Apr-27.0) TDB
Reference: JPL 17 (heliocentric ecliptic J2000)
 Element Value Uncertainty (1-sigma)   Units 
e .1423239128818078 1.5806e-07  
a 2.935390607694744 3.2416e-08 au
q 2.51761433057112 4.6541e-07 au
i 27.84498945537662 1.0762e-05 deg
node 4.654617103891337 1.5434e-05 deg
peri 152.920482049732 4.0288e-05 deg
M 291.1781830318575 3.0667e-05 deg
tp 2458951.672832703108
(2020-Apr-12.17283270)
0.00015885 TDB
period 1836.949754343734
5.03
3.0428e-05
8.331e-08
d
yr
n .1959770533454863 3.2463e-09 deg/d
Q 3.353166884818367 3.7029e-08 au
  Orbit Determination Parameters
   # obs. used (total)      442  
   data-arc span      6913 days (18.93 yr)  
   first obs. used      2000-01-31  
   last obs. used      2019-01-04  
   planetary ephem.      DE431  
   SB-pert. ephem.      SB431-N16  
   condition code      0  
   norm. resid. RMS      .58304  
   source      ORB  
   producer      Otto Matic  
   solution date      2019-Jul-13 07:05:34  

Additional Information
 Earth MOID = 1.54202 au 
 Jupiter MOID = 1.6494 au 
 T_jup = 3.087 
[ show covariance matrix ]

Ephemeris | Orbit Diagram | Orbital Elements | Mission Design | Physical Parameters | Discovery Circumstances | Close-Approach Data ]

Physical Parameter Table
Parameter Symbol Value Units Sigma Reference Notes
absolute magnitude H 14.4   n/a MPO320929  
diameter diameter 8.348 km 0.087 urn:nasa:pds:neowise_diameters_albedos::2.0[mainbelt] (http://adsabs.harvard.edu/abs/2011ApJ...741...68M)  
geometric albedo albedo 0.046   0.002 urn:nasa:pds:neowise_diameters_albedos::2.0[mainbelt] (http://adsabs.harvard.edu/abs/2011ApJ...741...68M)  

193047 (2000 FW11)          Discovered 2000-Mar-28 by LINEAR at Socorro
Reference: 20081113/Numbers.arcLast Updated: 2008-11-17

[ show close-approach data ]
Ephemeris | Orbit Diagram | Orbital Elements | Mission Design | Physical Parameters | Discovery Circumstances | Close-Approach Data ]
ABOUT SSD CREDITS/AWARDS PRIVACY/COPYRIGHT GLOSSARY LINKS
FirstGov 2019-Oct-14 17:09 UT
(server date/time)  
NASA Home Page
Site Manager:   Ryan S. Park
Webmaster  Alan B. Chamberlin